Regional Weather Roundup
Issued by NWS

Home | Current Version | Previous Version | Graphics & Text | Print | Product List | Glossary On
Versions: 1 2 3 4 5 6 7 8 9 10 11 12 13 14 15 16 17 18 19 20 21 22 23 24 25 26 27 28 29 30 31 32 33 34 35 36 37 38 39 40 41 42 43 44 45 46 47 48 49 50
927
ASUS45 KCYS 192210
RWRWY

WYOMING REGIONAL WEATHER ROUNDUP
NATIONAL WEATHER SERVICE CHEYENNE WY
400 PM MDT WED JUL 19 2017

NOTE:  "FAIR" INDICATES FEW OR NO CLOUDS BELOW 12,000 FEET
WITH NO SIGNIFICANT WEATHER AND/OR OBSTRUCTIONS TO VISIBILITY.

WYZ001-192300-
YELLOWSTONE NATIONAL PARK

CITY           SKY/WX    TMP DP  RH WIND       PRES   REMARKS
LK YELLOWSTONE   N/A     77  25  14 VRB7      30.34F
W YELLOWSTONE  NOT AVBL

$$
WYZ002>013-054>058-071-098>099-192300-
NORTHERN WYOMING

CITY           SKY/WX    TMP DP  RH WIND       PRES   REMARKS
JACKSON        SUNNY     86  34  15 CALM      30.21F
CODY           FAIR      84  47  27 N6        30.11F
GREYBULL       FAIR      97  28   8 MISG      29.98F HX  91
WORLAND        FAIR      95  36  12 N6        30.01F HX  90
SHERIDAN       FAIR      90  44  20 E5        30.06F
BUFFALO        FAIR      85  44  23 N6        30.15F
GILLETTE       FAIR      91  45  20 N10G23    30.08F
HULETT         FAIR      88  45  22 N5G17     30.08F
NEWCASTLE      FAIR      95  43  16 NW21G26   30.04R HX  91

$$
WYZ014>020-022>026-101>103-192300-
CENTRAL WYOMING

CITY           SKY/WX    TMP DP  RH WIND       PRES   REMARKS
BIG PINEY      FAIR      86  46  24 N9        30.24F
PINEDALE       FAIR      81  43  26 N13       30.27S
DUBOIS         FAIR      82  32  16 W14G21    30.24F
LANDER         NOT AVBL
RIVERTON       FAIR      90  43  19 E6        30.10F
CASPER         FAIR      94  43  17 N13       30.11F HX  90
DOUGLAS        FAIR      98  41  14 N17G23    30.07F HX  93

$$
WYZ021-027>030-104>119-192300-
SOUTHERN WYOMING

CITY           SKY/WX    TMP DP  RH WIND       PRES   REMARKS
EVANSTON       FAIR      80  51  36 W15       30.28F
KEMMERER         N/A     81  45  28 W5        30.28F
FORT BRIDGER   FAIR      84  46  26 NW12G18   30.29F
ROCK SPRINGS   FAIR      87  39  18 W9G20     30.22F
RAWLINS        FAIR      87  41  19 VRB7      30.22F
SARATOGA       FAIR      88  43  20 W16G23    30.25F
LARAMIE        FAIR      87  35  15 N5        30.25F
CHEYENNE       FAIR      94  34  12 NE10G18   30.14F
TORRINGTON     FAIR     104  27   6 VRB6      29.97F HX  97
PINE BLUFFS    FAIR      97  41  14 E3        30.08S HX  92

$$




USA.gov is the U.S. government's official web portal to all federal, state and local government web resources and services.